Weather History for KILM - October, 2012

Change the Weather History Date:

Tuesday, October 2, 2012

  Actual Average Record
Temperature  
Mean Temperature 79 °F 70 °F  
Max Temperature 82 °F 80 °F 93 °F (1986)
Min Temperature 75 °F 60 °F 44 °F (1876)
Degree Days  
Heating Degree Days 0 1  
Month to date heating degree days 0 2  
Since 1 July heating degree days 0 7  
Cooling Degree Days 14 6  
Month to date cooling degree days 22 12  
Year to date cooling degree days 2097 1929  
Growing Degree Days 27 (Base 50)    
Moisture  
Dew Point 75 °F    
Average Humidity 87    
Maximum Humidity 94    
Minimum Humidity 79    
Precipitation  
Precipitation 0.49 in 0.18 in 2.16 in (1891)
Month to date precipitation 0.94 0.36  
Year to date precipitation 37.98 47.17  
Sea Level Pressure  
Sea Level Pressure 29.90 in    
Wind  
Wind Speed 8 mph (South)    
Max Wind Speed 24 mph    
Max Gust Speed 37 mph    
Visibility 9 miles    
Events Rain , Thunderstorm    
T = Trace of Precipitation, MM = Missing Value Source: NWS Daily Summary

Daily Weather History Graph

Daily Weather History Graph

Search for Another Location

Airport or City:

Trip Planner

Search our weather history database for the weather conditions in past years. The results will help you decide how hot, cold, wet, or windy it might be!

Date:

Astronomy

Oct. 02, 2012 Rise Set
Actual Time 7:07 AM EDT 6:53 PM EDT
Civil Twilight 6:42 AM EDT 7:18 PM EDT
Nautical Twilight 6:13 AM EDT 7:47 PM EDT
Astronomical Twilight 5:43 AM EDT 8:16 PM EDT
Moon 8:14 PM EDT 9:23 AM EDT
Length of Visible Light 12h 36m
Length of Day
11h 46m
Waning Gibbous, 94% of the Moon is Illuminated
Oct 2
Waning Gibbous
Oct 8
Last Quarter
Oct 15
New
Oct 21
First Quarter
Oct 29
Full

Hourly Weather History & Observations

Time (EDT) Temp. Heat Index Dew Point Humidity Pressure Visibility Wind Dir Wind Speed Gust Speed Precip Events Conditions
12:53 AM 77.0 °F - 75.0 °F 94% 29.86 in 10.0 mi SE 5.8 mph - N/A   Clear
1:53 AM 78.1 °F - 75.9 °F 93% 29.84 in 10.0 mi SE 6.9 mph - N/A   Mostly Cloudy
2:53 AM 78.1 °F - 75.9 °F 93% 29.84 in 10.0 mi SE 5.8 mph - N/A   Overcast
3:45 AM 77.0 °F - 75.2 °F 94% 29.85 in 2.0 mi South 24.2 mph 36.8 mph 0.00 in Rain , Thunderstorm Light Thunderstorms and Rain
3:47 AM 75.2 °F - 73.4 °F 94% 29.85 in 1.2 mi South 17.3 mph 36.8 mph 0.07 in Rain , Thunderstorm Heavy Thunderstorms and Rain
3:53 AM 75.0 °F - 73.0 °F 94% 29.84 in 1.2 mi South 8.1 mph 36.8 mph 0.30 in Rain , Thunderstorm Thunderstorms and Rain
3:55 AM 75.2 °F - 73.4 °F 94% 29.84 in 2.0 mi South 8.1 mph - 0.00 in Rain , Thunderstorm Light Thunderstorms and Rain
4:12 AM 75.2 °F - 73.4 °F 94% 29.83 in 10.0 mi SSE 13.8 mph 19.6 mph 0.01 in Rain , Thunderstorm Light Rain
4:21 AM 75.2 °F - 73.4 °F 94% 29.83 in 8.0 mi SSE 10.4 mph 19.6 mph 0.02 in Rain Light Rain
4:53 AM 75.0 °F - 73.0 °F 94% 29.83 in 10.0 mi SSE 5.8 mph - 0.02 in Rain Light Rain
5:53 AM 75.9 °F - 73.9 °F 94% 29.83 in 10.0 mi SE 6.9 mph - 0.00 in   Clear
6:53 AM 77.0 °F - 75.0 °F 94% 29.84 in 10.0 mi SSE 5.8 mph - 0.01 in Rain Light Rain
7:53 AM 77.0 °F - 75.0 °F 94% 29.86 in 10.0 mi SSE 5.8 mph - 0.00 in   Scattered Clouds
8:41 AM 77.0 °F - 75.2 °F 94% 29.88 in 4.0 mi South 9.2 mph - 0.06 in Rain Light Rain
8:53 AM 77.0 °F - 75.0 °F 94% 29.87 in 4.0 mi South 9.2 mph - 0.07 in Rain Rain
9:15 AM 75.2 °F - 73.4 °F 94% 29.88 in 10.0 mi SSE 6.9 mph - 0.01 in Rain Light Rain
9:53 AM 75.9 °F - 73.9 °F 94% 29.88 in 10.0 mi SSE 4.6 mph - 0.04 in Rain Light Rain
10:53 AM 77.0 °F - 75.0 °F 94% 29.90 in 8.0 mi South 6.9 mph - 0.02 in Rain Light Rain
11:53 AM 79.0 °F - 77.0 °F 94% 29.90 in 10.0 mi South 8.1 mph - 0.03 in   Overcast
11:58 AM 78.8 °F - 77.0 °F 94% 29.90 in 10.0 mi South 10.4 mph - N/A   Mostly Cloudy
12:08 PM 80.6 °F 87.1 °F 77.0 °F 89% 29.90 in 10.0 mi South 8.1 mph - N/A   Mostly Cloudy
12:16 PM 80.6 °F 87.1 °F 77.0 °F 89% 29.90 in 10.0 mi SSW 8.1 mph - N/A   Mostly Cloudy
12:53 PM 81.0 °F 87.3 °F 75.9 °F 85% 29.90 in 10.0 mi South 5.8 mph - N/A   Mostly Cloudy
1:12 PM 82.4 °F 90.9 °F 77.0 °F 84% 29.90 in 10.0 mi South 11.5 mph - N/A   Mostly Cloudy
1:22 PM 82.4 °F 90.9 °F 77.0 °F 84% 29.89 in 10.0 mi South 8.1 mph - N/A   Mostly Cloudy
1:30 PM 82.4 °F 89.5 °F 75.2 °F 79% 29.89 in 10.0 mi South 9.2 mph - N/A   Scattered Clouds
1:53 PM 82.0 °F 89.4 °F 75.9 °F 82% 29.89 in 10.0 mi South 9.2 mph - N/A   Scattered Clouds
2:40 PM 80.6 °F 86.2 °F 75.2 °F 84% 29.89 in 10.0 mi South 12.7 mph - N/A   Mostly Cloudy
2:48 PM 82.4 °F 89.5 °F 75.2 °F 79% 29.89 in 10.0 mi South 10.4 mph - N/A   Scattered Clouds
2:53 PM 82.0 °F 89.4 °F 75.9 °F 82% 29.89 in 10.0 mi South 10.4 mph - N/A   Scattered Clouds
3:01 PM 80.6 °F 86.2 °F 75.2 °F 84% 29.89 in 10.0 mi South 11.5 mph - N/A   Mostly Cloudy
3:53 PM 81.0 °F 86.7 °F 75.0 °F 82% 29.89 in 10.0 mi South 10.4 mph - N/A   Scattered Clouds
4:40 PM 80.6 °F 86.2 °F 75.2 °F 84% 29.90 in 10.0 mi South 6.9 mph - N/A   Mostly Cloudy
4:53 PM 81.0 °F 86.7 °F 75.0 °F 82% 29.91 in 10.0 mi SSW 8.1 mph - N/A   Mostly Cloudy
5:10 PM 80.6 °F 86.2 °F 75.2 °F 84% 29.92 in 10.0 mi South 10.4 mph - N/A   Scattered Clouds
5:17 PM 80.6 °F 86.2 °F 75.2 °F 84% 29.92 in 10.0 mi South 9.2 mph - N/A   Mostly Cloudy
5:43 PM 78.8 °F - 73.4 °F 83% 29.93 in 10.0 mi South 8.1 mph - N/A   Scattered Clouds
5:51 PM 78.8 °F - 73.4 °F 83% 29.93 in 10.0 mi South 12.7 mph 18.4 mph N/A   Mostly Cloudy
5:53 PM 79.0 °F - 73.9 °F 84% 29.94 in 10.0 mi South 12.7 mph 18.4 mph N/A   Mostly Cloudy
6:00 PM 78.8 °F - 73.4 °F 83% 29.94 in 10.0 mi South 9.2 mph 18.4 mph N/A   Mostly Cloudy
6:53 PM 78.1 °F - 73.9 °F 87% 29.95 in 10.0 mi South 11.5 mph - N/A   Scattered Clouds
7:53 PM 77.0 °F - 73.4 °F 89% 29.96 in 10.0 mi South 6.9 mph - N/A   Clear
8:53 PM 77.0 °F - 73.0 °F 88% 29.97 in 10.0 mi South 5.8 mph - N/A   Clear
9:53 PM 77.0 °F - 73.9 °F 90% 29.99 in 10.0 mi South 8.1 mph - N/A   Clear
10:53 PM 77.0 °F - 73.9 °F 90% 30.01 in 10.0 mi South 6.9 mph - N/A   Clear
11:53 PM 78.1 °F - 75.0 °F 90% 30.02 in 10.0 mi South 10.4 mph - N/A   Mostly Cloudy